#datetime,building,power
2022-11-14T00:00:00,pth,2.40
2022-11-14T00:01:00,pth,1.20
2022-11-14T00:03:00,pth,2.40
2022-11-14T00:05:00,pth,2.40
2022-11-14T00:06:00,pth,1.20
2022-11-14T00:08:00,pth,2.40
2022-11-14T00:09:00,pth,1.20
2022-11-14T00:10:00,pth,1.20
2022-11-14T00:12:00,pth,2.40
2022-11-14T00:13:00,pth,1.20
2022-11-14T00:14:00,pth,1.20
2022-11-14T00:16:00,pth,2.40
2022-11-14T00:17:00,pth,1.20
2022-11-14T00:18:00,pth,1.20
2022-11-14T00:20:00,pth,1.20
2022-11-14T00:21:00,pth,1.20
2022-11-14T00:23:00,pth,2.40
2022-11-14T00:24:00,pth,1.20
2022-11-14T00:26:00,pth,2.40
2022-11-14T00:27:00,pth,1.20
2022-11-14T00:29:00,pth,2.40
2022-11-14T00:30:00,pth,1.20
2022-11-14T00:32:00,pth,2.40
2022-11-14T00:33:00,pth,1.20
2022-11-14T00:34:00,pth,1.20
2022-11-14T00:36:00,pth,1.20
2022-11-14T00:38:00,pth,2.40
2022-11-14T00:39:00,pth,1.20
2022-11-14T00:41:00,pth,2.40
2022-11-14T00:43:00,pth,3.60
2022-11-14T00:44:00,pth,1.20
2022-11-14T00:46:00,pth,2.40
2022-11-14T00:48:00,pth,2.40
2022-11-14T00:49:00,pth,1.20
2022-11-14T00:51:00,pth,2.40
2022-11-14T00:52:00,pth,1.20
2022-11-14T00:54:00,pth,2.40
2022-11-14T00:56:00,pth,2.40
2022-11-14T00:57:00,pth,1.20
2022-11-14T00:58:00,pth,1.20
2022-11-14T01:00:00,pth,2.40
2022-11-14T01:02:00,pth,2.40
2022-11-14T01:03:00,pth,1.20
2022-11-14T01:05:00,pth,1.20
2022-11-14T01:06:00,pth,1.20
2022-11-14T01:08:00,pth,2.40
2022-11-14T01:10:00,pth,2.40
2022-11-14T01:11:00,pth,1.20
2022-11-14T01:12:00,pth,1.20
2022-11-14T01:14:00,pth,3.60
2022-11-14T01:16:00,pth,2.40
2022-11-14T01:18:00,pth,3.60
2022-11-14T01:20:00,pth,6.00
2022-11-14T01:21:00,pth,2.40
2022-11-14T01:23:00,pth,6.00
2022-11-14T01:25:00,pth,4.80
2022-11-14T01:26:00,pth,2.40
2022-11-14T01:28:00,pth,2.40
2022-11-14T01:30:00,pth,2.40
2022-11-14T01:32:00,pth,2.40
2022-11-14T01:34:00,pth,2.40
2022-11-14T01:35:00,pth,1.20
2022-11-14T01:37:00,pth,2.40
2022-11-14T01:38:00,pth,1.20
2022-11-14T01:40:00,pth,2.40
2022-11-14T01:42:00,pth,2.40
2022-11-14T01:44:00,pth,2.40
2022-11-14T01:45:00,pth,1.20
2022-11-14T01:47:00,pth,2.40
2022-11-14T01:48:00,pth,1.20
2022-11-14T01:50:00,pth,2.40
2022-11-14T01:52:00,pth,2.40
2022-11-14T01:54:00,pth,2.40
2022-11-14T01:56:00,pth,2.40
2022-11-14T01:57:00,pth,1.20
2022-11-14T01:58:00,pth,1.20
2022-11-14T02:00:00,pth,2.40
2022-11-14T02:02:00,pth,2.40
2022-11-14T02:03:00,pth,1.20
2022-11-14T02:05:00,pth,2.40
2022-11-14T02:07:00,pth,2.40
2022-11-14T02:09:00,pth,2.40
2022-11-14T02:11:00,pth,2.40
2022-11-14T02:13:00,pth,2.40
2022-11-14T02:15:00,pth,2.40
2022-11-14T02:16:00,pth,1.20
2022-11-14T02:18:00,pth,2.40
2022-11-14T02:19:00,pth,1.20
2022-11-14T02:21:00,pth,2.40
2022-11-14T02:23:00,pth,2.40
2022-11-14T02:25:00,pth,2.40
2022-11-14T02:27:00,pth,2.40
2022-11-14T02:29:00,pth,1.20
2022-11-14T02:31:00,pth,3.60
2022-11-14T02:32:00,pth,1.20
2022-11-14T02:33:00,pth,1.20
2022-11-14T02:35:00,pth,2.40
2022-11-14T02:37:00,pth,2.40
2022-11-14T02:39:00,pth,2.40
2022-11-14T02:41:00,pth,2.40
2022-11-14T02:43:00,pth,2.40
2022-11-14T02:44:00,pth,1.20
2022-11-14T02:46:00,pth,2.40
2022-11-14T02:48:00,pth,2.40
2022-11-14T02:49:00,pth,1.20
2022-11-14T02:51:00,pth,2.40
2022-11-14T02:53:00,pth,2.40
2022-11-14T02:55:00,pth,2.40
2022-11-14T02:57:00,pth,2.40
2022-11-14T02:59:00,pth,2.40
2022-11-14T03:00:00,pth,1.20
2022-11-14T03:02:00,pth,2.40
2022-11-14T03:04:00,pth,2.40
2022-11-14T03:05:00,pth,1.20
2022-11-14T03:07:00,pth,1.20
2022-11-14T03:09:00,pth,2.40
2022-11-14T03:10:00,pth,1.20
2022-11-14T03:12:00,pth,2.40
2022-11-14T03:14:00,pth,2.40
2022-11-14T03:15:00,pth,1.20
2022-11-14T03:17:00,pth,1.20
2022-11-14T03:19:00,pth,2.40
2022-11-14T03:21:00,pth,2.40
2022-11-14T03:22:00,pth,1.20
2022-11-14T03:23:00,pth,2.40
2022-11-14T03:24:00,pth,1.20
2022-11-14T03:26:00,pth,2.40
2022-11-14T03:28:00,pth,1.20
2022-11-14T03:30:00,pth,2.40
2022-11-14T03:32:00,pth,2.40
2022-11-14T03:34:00,pth,2.40
2022-11-14T03:36:00,pth,2.40
2022-11-14T03:37:00,pth,1.20
2022-11-14T03:38:00,pth,1.20
2022-11-14T03:40:00,pth,1.20
2022-11-14T03:41:00,pth,1.20
2022-11-14T03:43:00,pth,2.40
2022-11-14T03:44:00,pth,1.20
2022-11-14T03:46:00,pth,2.40
2022-11-14T03:48:00,pth,1.20
2022-11-14T03:50:00,pth,2.40
2022-11-14T03:52:00,pth,2.40
2022-11-14T03:55:00,pth,2.40
2022-11-14T03:56:00,pth,1.20
2022-11-14T03:58:00,pth,2.40
2022-11-14T03:59:00,pth,1.20
2022-11-14T04:00:00,pth,1.20
2022-11-14T04:02:00,pth,2.40
2022-11-14T04:03:00,pth,1.20
2022-11-14T04:05:00,pth,1.20
2022-11-14T04:07:00,pth,2.40
2022-11-14T04:08:00,pth,1.20
2022-11-14T04:09:00,pth,1.20
2022-11-14T04:11:00,pth,2.40
2022-11-14T04:12:00,pth,1.20
2022-11-14T04:14:00,pth,2.40
2022-11-14T04:15:00,pth,1.20
2022-11-14T04:19:00,pth,2.40
2022-11-14T04:20:00,pth,2.40
2022-11-14T04:21:00,pth,1.20
2022-11-14T04:23:00,pth,2.40
2022-11-14T04:24:00,pth,1.20
2022-11-14T04:27:00,pth,2.40
2022-11-14T04:29:00,pth,2.40
2022-11-14T04:30:00,pth,1.20
2022-11-14T04:32:00,pth,2.40
2022-11-14T04:35:00,pth,2.40
2022-11-14T04:37:00,pth,1.20
2022-11-14T04:38:00,pth,1.20
2022-11-14T04:40:00,pth,2.40
2022-11-14T04:41:00,pth,1.20
2022-11-14T04:43:00,pth,2.40
2022-11-14T04:44:00,pth,1.20
2022-11-14T04:46:00,pth,1.20
2022-11-14T04:48:00,pth,2.40
2022-11-14T04:50:00,pth,2.40
2022-11-14T04:51:00,pth,1.20
2022-11-14T04:53:00,pth,2.40
2022-11-14T04:54:00,pth,1.20
2022-11-14T04:56:00,pth,1.20
2022-11-14T04:57:00,pth,1.20
2022-11-14T04:59:00,pth,2.40
2022-11-14T05:01:00,pth,2.40
2022-11-14T05:03:00,pth,1.20
2022-11-14T05:05:00,pth,2.40
2022-11-14T05:06:00,pth,1.20
2022-11-14T05:08:00,pth,2.40
2022-11-14T05:11:00,pth,2.40
2022-11-14T05:12:00,pth,1.20
2022-11-14T05:14:00,pth,2.40
2022-11-14T05:15:00,pth,1.20
2022-11-14T05:17:00,pth,2.40
2022-11-14T05:18:00,pth,1.20
2022-11-14T05:20:00,pth,2.40
2022-11-14T05:22:00,pth,2.40
2022-11-14T05:24:00,pth,2.40
2022-11-14T05:25:00,pth,1.20
2022-11-14T05:27:00,pth,2.40
2022-11-14T05:29:00,pth,2.40
2022-11-14T05:30:00,pth,1.20
2022-11-14T05:32:00,pth,2.40
2022-11-14T05:34:00,pth,2.40
2022-11-14T05:36:00,pth,2.40
2022-11-14T05:38:00,pth,2.40
2022-11-14T05:39:00,pth,1.20
2022-11-14T05:41:00,pth,2.40
2022-11-14T05:42:00,pth,1.20
2022-11-14T05:43:00,pth,1.20
2022-11-14T05:46:00,pth,2.40
2022-11-14T05:47:00,pth,1.20
2022-11-14T05:49:00,pth,2.40
2022-11-14T05:51:00,pth,2.40
2022-11-14T05:53:00,pth,2.40
2022-11-14T05:55:00,pth,2.40
2022-11-14T05:57:00,pth,1.20
2022-11-14T05:59:00,pth,2.40
2022-11-14T06:01:00,pth,2.40
2022-11-14T06:03:00,pth,1.20
2022-11-14T06:05:00,pth,2.40
2022-11-14T06:07:00,pth,2.40
2022-11-14T06:09:00,pth,1.20
2022-11-14T06:11:00,pth,2.40
2022-11-14T06:12:00,pth,1.20
2022-11-14T06:13:00,pth,1.20
2022-11-14T06:15:00,pth,2.40
2022-11-14T06:17:00,pth,2.40
2022-11-14T06:19:00,pth,1.20
2022-11-14T06:20:00,pth,1.20
2022-11-14T06:22:00,pth,2.40
2022-11-14T06:23:00,pth,1.20
2022-11-14T06:24:00,pth,1.20
2022-11-14T06:26:00,pth,2.40
2022-11-14T06:27:00,pth,1.20
2022-11-14T06:29:00,pth,1.20
2022-11-14T06:31:00,pth,2.40
2022-11-14T06:33:00,pth,2.40
2022-11-14T06:35:00,pth,2.40
2022-11-14T06:36:00,pth,1.20
2022-11-14T06:38:00,pth,2.40
2022-11-14T06:39:00,pth,1.20
2022-11-14T06:41:00,pth,1.20
2022-11-14T06:42:00,pth,1.20
2022-11-14T06:44:00,pth,2.40
2022-11-14T06:45:00,pth,1.20
2022-11-14T06:47:00,pth,2.40
2022-11-14T06:49:00,pth,1.20
2022-11-14T06:51:00,pth,4.80
2022-11-14T06:53:00,pth,7.20
2022-11-14T06:55:00,pth,6.00
2022-11-14T06:57:00,pth,2.40
2022-11-14T06:59:00,pth,1.20
2022-11-14T07:01:00,pth,2.40
2022-11-14T07:03:00,pth,2.40
2022-11-14T07:05:00,pth,2.40
2022-11-14T07:06:00,pth,1.20
2022-11-14T07:07:00,pth,1.20
2022-11-14T07:09:00,pth,1.20
2022-11-14T07:11:00,pth,2.40
2022-11-14T07:14:00,pth,2.40
2022-11-14T07:15:00,pth,1.20
2022-11-14T07:17:00,pth,2.40
2022-11-14T07:19:00,pth,1.20
2022-11-14T07:21:00,pth,2.40
2022-11-14T07:23:00,pth,1.20
2022-11-14T07:24:00,pth,1.20
2022-11-14T07:26:00,pth,2.40
2022-11-14T07:29:00,pth,2.40
2022-11-14T07:32:00,pth,2.40
2022-11-14T07:35:00,pth,2.40
2022-11-14T07:37:00,pth,1.20
2022-11-14T07:39:00,pth,2.40
2022-11-14T07:40:00,pth,1.20
2022-11-14T07:42:00,pth,2.40
2022-11-14T07:43:00,pth,1.20
2022-11-14T07:44:00,pth,1.20
2022-11-14T07:46:00,pth,1.20
2022-11-14T07:47:00,pth,1.20
2022-11-14T07:49:00,pth,2.40
2022-11-14T07:51:00,pth,1.20
2022-11-14T07:53:00,pth,2.40
2022-11-14T07:55:00,pth,2.40
2022-11-14T07:57:00,pth,2.40
2022-11-14T07:59:00,pth,2.40
2022-11-14T08:01:00,pth,1.20
2022-11-14T08:02:00,pth,1.20
2022-11-14T08:04:00,pth,2.40
2022-11-14T08:07:00,pth,2.40
2022-11-14T08:10:00,pth,1.20
2022-11-14T08:11:00,pth,1.20
2022-11-14T08:13:00,pth,1.20
2022-11-14T08:15:00,pth,2.40
2022-11-14T08:18:00,pth,2.40
2022-11-14T08:20:00,pth,1.20
2022-11-14T08:21:00,pth,1.20
2022-11-14T08:24:00,pth,2.40
2022-11-14T08:27:00,pth,2.40
2022-11-14T08:29:00,pth,1.20
2022-11-14T08:31:00,pth,2.40
2022-11-14T08:33:00,pth,1.20
2022-11-14T08:35:00,pth,2.40
2022-11-14T08:38:00,pth,1.20
2022-11-14T08:40:00,pth,2.40
2022-11-14T08:43:00,pth,1.20
2022-11-14T08:45:00,pth,1.20
2022-11-14T08:46:00,pth,1.20
2022-11-14T08:49:00,pth,1.20
2022-11-14T08:50:00,pth,1.20
2022-11-14T08:52:00,pth,1.20
2022-11-14T08:54:00,pth,1.20
2022-11-14T08:56:00,pth,1.20
2022-11-14T08:59:00,pth,2.40
2022-11-14T09:01:00,pth,1.20
2022-11-14T09:02:00,pth,1.20
2022-11-14T09:04:00,pth,1.20
2022-11-14T09:06:00,pth,1.20
2022-11-14T09:09:00,pth,2.40
2022-11-14T09:11:00,pth,1.20
2022-11-14T09:13:00,pth,1.20
2022-11-14T09:15:00,pth,2.40
2022-11-14T09:17:00,pth,1.20
2022-11-14T09:18:00,pth,1.20
2022-11-14T09:20:00,pth,1.20
2022-11-14T09:22:00,pth,1.20
2022-11-14T09:24:00,pth,1.20
2022-11-14T09:26:00,pth,1.20
2022-11-14T09:27:00,pth,1.20
2022-11-14T09:30:00,pth,1.20
2022-11-14T09:32:00,pth,2.40
2022-11-14T09:35:00,pth,1.20
2022-11-14T09:37:00,pth,2.40
2022-11-14T09:39:00,pth,1.20
2022-11-14T09:41:00,pth,1.20
2022-11-14T09:42:00,pth,1.20
2022-11-14T09:45:00,pth,2.40
2022-11-14T09:47:00,pth,1.20
2022-11-14T09:49:00,pth,1.20
2022-11-14T09:50:00,pth,1.20
2022-11-14T09:52:00,pth,1.20
2022-11-14T09:54:00,pth,1.20
2022-11-14T09:56:00,pth,1.20
2022-11-14T09:58:00,pth,1.20
2022-11-14T10:00:00,pth,2.40
2022-11-14T10:01:00,pth,1.20
2022-11-14T10:03:00,pth,1.20
2022-11-14T10:05:00,pth,1.20
2022-11-14T10:07:00,pth,1.20
2022-11-14T10:09:00,pth,2.40
2022-11-14T10:11:00,pth,2.40
2022-11-14T10:12:00,pth,1.20
2022-11-14T10:13:00,pth,1.20
2022-11-14T10:15:00,pth,3.60
2022-11-14T10:17:00,pth,2.40
2022-11-14T10:19:00,pth,2.40
2022-11-14T10:20:00,pth,1.20
2022-11-14T10:22:00,pth,3.60
2022-11-14T10:24:00,pth,4.80
2022-11-14T10:26:00,pth,4.80
2022-11-14T10:28:00,pth,3.60
2022-11-14T10:29:00,pth,1.20
2022-11-14T10:30:00,pth,1.20
2022-11-14T10:32:00,pth,3.60
2022-11-14T10:34:00,pth,3.60
2022-11-14T10:36:00,pth,4.80
2022-11-14T10:38:00,pth,3.60
2022-11-14T10:39:00,pth,7.20
2022-11-14T10:41:00,pth,14.40
2022-11-14T10:43:00,pth,15.60
2022-11-14T10:45:00,pth,15.60
2022-11-14T10:47:00,pth,14.40
2022-11-14T10:49:00,pth,15.60
2022-11-14T10:50:00,pth,7.20
2022-11-14T10:52:00,pth,14.40
2022-11-14T10:53:00,pth,7.20
2022-11-14T10:55:00,pth,18.00
2022-11-14T10:56:00,pth,8.40
2022-11-14T10:58:00,pth,15.60
2022-11-14T11:00:00,pth,18.00
2022-11-14T11:01:00,pth,8.40
2022-11-14T11:03:00,pth,18.00
2022-11-14T11:04:00,pth,7.20
2022-11-14T11:06:00,pth,15.60
2022-11-14T11:07:00,pth,7.20
2022-11-14T11:09:00,pth,15.60
2022-11-14T11:11:00,pth,15.60
2022-11-14T11:12:00,pth,8.40
2022-11-14T11:14:00,pth,15.60
2022-11-14T11:16:00,pth,15.60
2022-11-14T11:17:00,pth,6.00
2022-11-14T11:19:00,pth,14.40
2022-11-14T11:21:00,pth,14.40
2022-11-14T11:22:00,pth,7.20
2022-11-14T11:24:00,pth,16.80
2022-11-14T11:26:00,pth,16.80
2022-11-14T11:27:00,pth,8.40
2022-11-14T11:29:00,pth,15.60
2022-11-14T11:30:00,pth,8.40
2022-11-14T11:32:00,pth,14.40
2022-11-14T11:34:00,pth,13.20
2022-11-14T11:35:00,pth,6.00
2022-11-14T11:37:00,pth,13.20
2022-11-14T11:38:00,pth,1.20
2022-11-14T11:40:00,pth,2.40
2022-11-14T11:42:00,pth,2.40
2022-11-14T11:43:00,pth,1.20
2022-11-14T11:45:00,pth,2.40
2022-11-14T11:47:00,pth,2.40
2022-11-14T11:49:00,pth,2.40
2022-11-14T11:51:00,pth,2.40
2022-11-14T11:53:00,pth,2.40
2022-11-14T11:55:00,pth,2.40
2022-11-14T11:57:00,pth,1.20
2022-11-14T11:59:00,pth,1.20
2022-11-14T12:01:00,pth,2.40
2022-11-14T12:03:00,pth,4.80
2022-11-14T12:05:00,pth,3.60
2022-11-14T12:06:00,pth,1.20
2022-11-14T12:07:00,pth,1.20
2022-11-14T12:09:00,pth,2.40
2022-11-14T12:11:00,pth,7.20
2022-11-14T12:13:00,pth,13.20
2022-11-14T12:14:00,pth,6.00
2022-11-14T12:16:00,pth,13.20
2022-11-14T12:18:00,pth,13.20
2022-11-14T12:20:00,pth,13.20
2022-11-14T12:22:00,pth,13.20
2022-11-14T12:24:00,pth,14.40
2022-11-14T12:25:00,pth,6.00
2022-11-14T12:27:00,pth,14.40
2022-11-14T12:29:00,pth,12.00
2022-11-14T12:30:00,pth,7.20
2022-11-14T12:32:00,pth,12.00
2022-11-14T12:34:00,pth,13.20
2022-11-14T12:36:00,pth,14.40
2022-11-14T12:38:00,pth,13.20
2022-11-14T12:40:00,pth,13.20
2022-11-14T12:42:00,pth,12.00
2022-11-14T12:44:00,pth,13.20
2022-11-14T12:45:00,pth,6.00
2022-11-14T12:47:00,pth,13.20
2022-11-14T12:49:00,pth,12.00
2022-11-14T12:50:00,pth,7.20
2022-11-14T12:51:00,pth,6.00
2022-11-14T12:52:00,pth,3.60
2022-11-14T12:54:00,pth,9.60
2022-11-14T12:56:00,pth,14.40
2022-11-14T12:57:00,pth,6.00
2022-11-14T12:58:00,pth,7.20
2022-11-14T13:00:00,pth,6.00
2022-11-14T13:02:00,pth,13.20
2022-11-14T13:04:00,pth,13.20
2022-11-14T13:05:00,pth,2.40
2022-11-14T13:07:00,pth,10.80
2022-11-14T13:09:00,pth,14.40
2022-11-14T13:11:00,pth,2.40
2022-11-14T13:12:00,pth,2.40
2022-11-14T13:14:00,pth,2.40
2022-11-14T13:16:00,pth,3.60
2022-11-14T13:17:00,pth,1.20
2022-11-14T13:19:00,pth,2.40
2022-11-14T13:20:00,pth,1.20
2022-11-14T13:21:00,pth,1.20
2022-11-14T13:23:00,pth,3.60
2022-11-14T13:24:00,pth,1.20
2022-11-14T13:26:00,pth,2.40
2022-11-14T13:27:00,pth,1.20
2022-11-14T13:29:00,pth,3.60
2022-11-14T13:31:00,pth,2.40
2022-11-14T13:32:00,pth,1.20
2022-11-14T13:34:00,pth,2.40
2022-11-14T13:36:00,pth,3.60
2022-11-14T13:38:00,pth,4.80
2022-11-14T13:40:00,pth,2.40
2022-11-14T13:42:00,pth,3.60
2022-11-14T13:43:00,pth,1.20
2022-11-14T13:45:00,pth,3.60
2022-11-14T13:47:00,pth,2.40
2022-11-14T13:49:00,pth,3.60
2022-11-14T13:51:00,pth,2.40
2022-11-14T13:52:00,pth,1.20
2022-11-14T13:53:00,pth,2.40
2022-11-14T13:55:00,pth,2.40
2022-11-14T13:57:00,pth,3.60
2022-11-14T13:58:00,pth,1.20
2022-11-14T14:00:00,pth,3.60
2022-11-14T14:02:00,pth,2.40
2022-11-14T14:04:00,pth,2.40
2022-11-14T14:06:00,pth,2.40
2022-11-14T14:07:00,pth,1.20
2022-11-14T14:08:00,pth,1.20
2022-11-14T14:10:00,pth,1.20
2022-11-14T14:12:00,pth,2.40
2022-11-14T14:13:00,pth,1.20
2022-11-14T14:15:00,pth,2.40
2022-11-14T14:17:00,pth,2.40
2022-11-14T14:19:00,pth,1.20
2022-11-14T14:21:00,pth,2.40
2022-11-14T14:22:00,pth,1.20
2022-11-14T14:24:00,pth,2.40
2022-11-14T14:26:00,pth,1.20
2022-11-14T14:28:00,pth,2.40
2022-11-14T14:31:00,pth,1.20
2022-11-14T14:32:00,pth,1.20
2022-11-14T14:34:00,pth,2.40
2022-11-14T14:36:00,pth,2.40
2022-11-14T14:38:00,pth,10.80
2022-11-14T14:39:00,pth,6.00
2022-11-14T14:41:00,pth,13.20
2022-11-14T14:43:00,pth,13.20
2022-11-14T14:45:00,pth,14.40
2022-11-14T14:47:00,pth,13.20
2022-11-14T14:49:00,pth,13.20
2022-11-14T14:50:00,pth,7.20
2022-11-14T14:52:00,pth,14.40
2022-11-14T14:54:00,pth,13.20
2022-11-14T14:56:00,pth,12.00
2022-11-14T14:58:00,pth,13.20
2022-11-14T14:59:00,pth,6.00
2022-11-14T15:01:00,pth,7.20
2022-11-14T15:02:00,pth,6.00
2022-11-14T15:03:00,pth,7.20
2022-11-14T15:04:00,pth,6.00
2022-11-14T15:06:00,pth,13.20
2022-11-14T15:08:00,pth,12.00
2022-11-14T15:10:00,pth,4.80
2022-11-14T15:11:00,pth,6.00
2022-11-14T15:13:00,pth,13.20
2022-11-14T15:15:00,pth,9.60
2022-11-14T15:17:00,pth,7.20
2022-11-14T15:19:00,pth,12.00
2022-11-14T15:20:00,pth,7.20
2022-11-14T15:22:00,pth,4.80
2022-11-14T15:24:00,pth,10.80
2022-11-14T15:26:00,pth,12.00
2022-11-14T15:28:00,pth,6.00
2022-11-14T15:29:00,pth,3.60
2022-11-14T15:31:00,pth,13.20
2022-11-14T15:33:00,pth,10.80
2022-11-14T15:35:00,pth,4.80
2022-11-14T15:36:00,pth,4.80
2022-11-14T15:37:00,pth,3.60
2022-11-14T15:38:00,pth,1.20
2022-11-14T15:40:00,pth,3.60
2022-11-14T15:42:00,pth,13.20
2022-11-14T15:44:00,pth,13.20
2022-11-14T15:45:00,pth,7.20
2022-11-14T15:47:00,pth,13.20
2022-11-14T15:49:00,pth,13.20
2022-11-14T15:51:00,pth,13.20
2022-11-14T15:53:00,pth,15.60
2022-11-14T15:54:00,pth,7.20
2022-11-14T15:56:00,pth,12.00
2022-11-14T15:57:00,pth,7.20
2022-11-14T15:58:00,pth,6.00
2022-11-14T16:00:00,pth,13.20
2022-11-14T16:02:00,pth,12.00
2022-11-14T16:03:00,pth,7.20
2022-11-14T16:04:00,pth,6.00
2022-11-14T16:06:00,pth,13.20
2022-11-14T16:08:00,pth,13.20
2022-11-14T16:10:00,pth,14.40
2022-11-14T16:11:00,pth,2.40
2022-11-14T16:13:00,pth,12.00
2022-11-14T16:14:00,pth,6.00
2022-11-14T16:16:00,pth,8.40
2022-11-14T16:18:00,pth,13.20
2022-11-14T16:20:00,pth,8.40
2022-11-14T16:22:00,pth,16.80
2022-11-14T16:23:00,pth,7.20
2022-11-14T16:25:00,pth,9.60
2022-11-14T16:27:00,pth,15.60
2022-11-14T16:28:00,pth,4.80
2022-11-14T16:29:00,pth,3.60
2022-11-14T16:30:00,pth,8.40
2022-11-14T16:32:00,pth,15.60
2022-11-14T16:34:00,pth,10.80
2022-11-14T16:35:00,pth,7.20
2022-11-14T16:37:00,pth,8.40
2022-11-14T16:39:00,pth,10.80
2022-11-14T16:40:00,pth,2.40
2022-11-14T16:42:00,pth,2.40
2022-11-14T16:44:00,pth,2.40
2022-11-14T16:46:00,pth,3.60
2022-11-14T16:47:00,pth,1.20
2022-11-14T16:48:00,pth,1.20
2022-11-14T16:50:00,pth,2.40
2022-11-14T16:52:00,pth,2.40
2022-11-14T16:54:00,pth,2.40
2022-11-14T16:56:00,pth,3.60
2022-11-14T16:58:00,pth,2.40
2022-11-14T16:59:00,pth,1.20
2022-11-14T17:01:00,pth,2.40
2022-11-14T17:02:00,pth,1.20
2022-11-14T17:04:00,pth,2.40
2022-11-14T17:05:00,pth,1.20
2022-11-14T17:06:00,pth,2.40
2022-11-14T17:08:00,pth,1.20
2022-11-14T17:10:00,pth,2.40
2022-11-14T17:11:00,pth,1.20
2022-11-14T17:13:00,pth,2.40
2022-11-14T17:14:00,pth,1.20
2022-11-14T17:16:00,pth,2.40
2022-11-14T17:18:00,pth,2.40
2022-11-14T17:20:00,pth,2.40
2022-11-14T17:22:00,pth,2.40
2022-11-14T17:23:00,pth,1.20
2022-11-14T17:25:00,pth,2.40
2022-11-14T17:27:00,pth,2.40
2022-11-14T17:29:00,pth,3.60
2022-11-14T17:31:00,pth,2.40
2022-11-14T17:33:00,pth,2.40
2022-11-14T17:35:00,pth,3.60
2022-11-14T17:37:00,pth,2.40
2022-11-14T17:39:00,pth,2.40
2022-11-14T17:41:00,pth,3.60
2022-11-14T17:42:00,pth,1.20
2022-11-14T17:44:00,pth,2.40
2022-11-14T17:45:00,pth,1.20
2022-11-14T17:46:00,pth,1.20
2022-11-14T17:48:00,pth,2.40
2022-11-14T17:49:00,pth,1.20
2022-11-14T17:51:00,pth,2.40
2022-11-14T17:53:00,pth,3.60
2022-11-14T17:55:00,pth,1.20
2022-11-14T17:57:00,pth,2.40
2022-11-14T17:59:00,pth,2.40
2022-11-14T18:01:00,pth,2.40
2022-11-14T18:03:00,pth,2.40
2022-11-14T18:04:00,pth,1.20
2022-11-14T18:06:00,pth,4.80
2022-11-14T18:08:00,pth,6.00
2022-11-14T18:10:00,pth,4.80
2022-11-14T18:11:00,pth,2.40
2022-11-14T18:13:00,pth,3.60
2022-11-14T18:14:00,pth,1.20
2022-11-14T18:16:00,pth,3.60
2022-11-14T18:18:00,pth,3.60
2022-11-14T18:20:00,pth,4.80
2022-11-14T18:21:00,pth,1.20
2022-11-14T18:22:00,pth,2.40
2022-11-14T18:24:00,pth,3.60
2022-11-14T18:25:00,pth,1.20
2022-11-14T18:27:00,pth,3.60
2022-11-14T18:29:00,pth,2.40
2022-11-14T18:31:00,pth,2.40
2022-11-14T18:33:00,pth,3.60
2022-11-14T18:35:00,pth,2.40
2022-11-14T18:36:00,pth,1.20
2022-11-14T18:38:00,pth,2.40
2022-11-14T18:40:00,pth,2.40
2022-11-14T18:41:00,pth,1.20
2022-11-14T18:43:00,pth,2.40
2022-11-14T18:44:00,pth,2.40
2022-11-14T18:45:00,pth,1.20
2022-11-14T18:47:00,pth,2.40
2022-11-14T18:49:00,pth,3.60
2022-11-14T18:50:00,pth,2.40
2022-11-14T18:52:00,pth,6.00
2022-11-14T18:53:00,pth,2.40
2022-11-14T18:55:00,pth,2.40
2022-11-14T18:56:00,pth,1.20
2022-11-14T18:57:00,pth,1.20
2022-11-14T18:59:00,pth,3.60
2022-11-14T19:01:00,pth,2.40
2022-11-14T19:03:00,pth,3.60
2022-11-14T19:05:00,pth,3.60
2022-11-14T19:06:00,pth,1.20
2022-11-14T19:08:00,pth,3.60
2022-11-14T19:10:00,pth,3.60
2022-11-14T19:12:00,pth,2.40
2022-11-14T19:14:00,pth,3.60
2022-11-14T19:15:00,pth,1.20
2022-11-14T19:17:00,pth,3.60
2022-11-14T19:19:00,pth,2.40
2022-11-14T19:21:00,pth,3.60
2022-11-14T19:23:00,pth,2.40
2022-11-14T19:24:00,pth,1.20
2022-11-14T19:26:00,pth,3.60
2022-11-14T19:28:00,pth,2.40
2022-11-14T19:29:00,pth,2.40
2022-11-14T19:31:00,pth,3.60
2022-11-14T19:33:00,pth,4.80
2022-11-14T19:35:00,pth,3.60
2022-11-14T19:36:00,pth,1.20
2022-11-14T19:38:00,pth,3.60
2022-11-14T19:39:00,pth,1.20
2022-11-14T19:40:00,pth,2.40
2022-11-14T19:42:00,pth,3.60
2022-11-14T19:44:00,pth,2.40
2022-11-14T19:45:00,pth,1.20
2022-11-14T19:47:00,pth,3.60
2022-11-14T19:49:00,pth,3.60
2022-11-14T19:51:00,pth,2.40
2022-11-14T19:52:00,pth,1.20
2022-11-14T19:54:00,pth,2.40
2022-11-14T19:56:00,pth,2.40
2022-11-14T19:58:00,pth,3.60
2022-11-14T20:00:00,pth,2.40
2022-11-14T20:02:00,pth,2.40
2022-11-14T20:03:00,pth,1.20
2022-11-14T20:05:00,pth,3.60
2022-11-14T20:07:00,pth,2.40
2022-11-14T20:09:00,pth,2.40
2022-11-14T20:10:00,pth,1.20
2022-11-14T20:12:00,pth,2.40
2022-11-14T20:14:00,pth,3.60
2022-11-14T20:15:00,pth,1.20
2022-11-14T20:17:00,pth,2.40
2022-11-14T20:19:00,pth,3.60
2022-11-14T20:21:00,pth,3.60
2022-11-14T20:23:00,pth,3.60
2022-11-14T20:25:00,pth,4.80
2022-11-14T20:27:00,pth,3.60
2022-11-14T20:29:00,pth,3.60
2022-11-14T20:31:00,pth,3.60
2022-11-14T20:32:00,pth,1.20
2022-11-14T20:33:00,pth,2.40
2022-11-14T20:35:00,pth,2.40
2022-11-14T20:37:00,pth,3.60
2022-11-14T20:38:00,pth,2.40
2022-11-14T20:40:00,pth,3.60
2022-11-14T20:42:00,pth,3.60
2022-11-14T20:43:00,pth,2.40
2022-11-14T20:45:00,pth,2.40
2022-11-14T20:47:00,pth,14.40
2022-11-14T20:48:00,pth,8.40
2022-11-14T20:50:00,pth,14.40
2022-11-14T20:52:00,pth,16.80
2022-11-14T20:53:00,pth,8.40
2022-11-14T20:55:00,pth,15.60
2022-11-14T20:57:00,pth,14.40
2022-11-14T20:59:00,pth,15.60
2022-11-14T21:00:00,pth,7.20
2022-11-14T21:01:00,pth,7.20
2022-11-14T21:03:00,pth,14.40
2022-11-14T21:05:00,pth,15.60
2022-11-14T21:07:00,pth,13.20
2022-11-14T21:08:00,pth,7.20
2022-11-14T21:10:00,pth,15.60
2022-11-14T21:12:00,pth,14.40
2022-11-14T21:13:00,pth,8.40
2022-11-14T21:15:00,pth,15.60
2022-11-14T21:17:00,pth,14.40
2022-11-14T21:18:00,pth,7.20
2022-11-14T21:20:00,pth,12.00
2022-11-14T21:21:00,pth,7.20
2022-11-14T21:23:00,pth,14.40
2022-11-14T21:24:00,pth,7.20
2022-11-14T21:26:00,pth,14.40
2022-11-14T21:27:00,pth,7.20
2022-11-14T21:29:00,pth,13.20
2022-11-14T21:30:00,pth,7.20
2022-11-14T21:32:00,pth,14.40
2022-11-14T21:34:00,pth,14.40
2022-11-14T21:36:00,pth,15.60
2022-11-14T21:37:00,pth,7.20
2022-11-14T21:39:00,pth,13.20
2022-11-14T21:40:00,pth,7.20
2022-11-14T21:41:00,pth,7.20
2022-11-14T21:43:00,pth,9.60
2022-11-14T21:45:00,pth,12.00
2022-11-14T21:47:00,pth,14.40
2022-11-14T21:49:00,pth,10.80
2022-11-14T21:51:00,pth,4.80
2022-11-14T21:53:00,pth,14.40
2022-11-14T21:54:00,pth,7.20
2022-11-14T21:56:00,pth,14.40
2022-11-14T21:57:00,pth,7.20
2022-11-14T21:59:00,pth,14.40
2022-11-14T22:01:00,pth,16.80
2022-11-14T22:02:00,pth,8.40
2022-11-14T22:04:00,pth,18.00
2022-11-14T22:06:00,pth,14.40
2022-11-14T22:08:00,pth,14.40
2022-11-14T22:10:00,pth,14.40
2022-11-14T22:11:00,pth,7.20
2022-11-14T22:13:00,pth,13.20
2022-11-14T22:14:00,pth,8.40
2022-11-14T22:16:00,pth,14.40
2022-11-14T22:18:00,pth,15.60
2022-11-14T22:20:00,pth,14.40
2022-11-14T22:21:00,pth,7.20
2022-11-14T22:22:00,pth,7.20
2022-11-14T22:24:00,pth,9.60
2022-11-14T22:25:00,pth,6.00
2022-11-14T22:27:00,pth,14.40
2022-11-14T22:28:00,pth,7.20
2022-11-14T22:29:00,pth,7.20
2022-11-14T22:31:00,pth,14.40
2022-11-14T22:33:00,pth,15.60
2022-11-14T22:35:00,pth,13.20
2022-11-14T22:36:00,pth,7.20
2022-11-14T22:38:00,pth,14.40
2022-11-14T22:40:00,pth,14.40
2022-11-14T22:41:00,pth,7.20
2022-11-14T22:43:00,pth,14.40
2022-11-14T22:45:00,pth,13.20
2022-11-14T22:47:00,pth,13.20
2022-11-14T22:49:00,pth,14.40
2022-11-14T22:51:00,pth,14.40
2022-11-14T22:52:00,pth,7.20
2022-11-14T22:54:00,pth,14.40
2022-11-14T22:55:00,pth,7.20
2022-11-14T22:57:00,pth,13.20
2022-11-14T22:59:00,pth,13.20
2022-11-14T23:00:00,pth,7.20
2022-11-14T23:01:00,pth,7.20
2022-11-14T23:02:00,pth,7.20
2022-11-14T23:03:00,pth,7.20
2022-11-14T23:05:00,pth,14.40
2022-11-14T23:07:00,pth,2.40
2022-11-14T23:09:00,pth,3.60
2022-11-14T23:11:00,pth,2.40
2022-11-14T23:12:00,pth,2.40
2022-11-14T23:14:00,pth,2.40
2022-11-14T23:16:00,pth,2.40
2022-11-14T23:18:00,pth,2.40
2022-11-14T23:19:00,pth,2.40
2022-11-14T23:21:00,pth,2.40
2022-11-14T23:23:00,pth,2.40
2022-11-14T23:25:00,pth,2.40
2022-11-14T23:27:00,pth,2.40
2022-11-14T23:29:00,pth,2.40